디시인사이드 갤러리

리듬게임 갤러리

갤러리 이슈박스, 최근방문 갤러리

갤러리 리스트 영역

갤러리 리스트
번호 제목 글쓴이 작성일 조회 추천
설문 항상 코디가 붙어있었으면 하는 패션 테러리스트 스타는? 운영자 20.02.25 - -
16830 [NX미션 영상]브라질 편 [4] XEED() 06.12.16 203 0
16829 키큰넘훃아 몇가지 질문 [9] DOPEFISH() 06.12.16 132 0
16828 횽들 PDP에 관해서 질문좀.. [1] GURA() 06.12.16 56 0
16827 횽들 질문 한개 [4] 복돌이() 06.12.16 79 0
16826 여기서 상콤하게 [9] KJD*() 06.12.16 121 0
16825 오늘 KSC 비트콘 슬슬 작업한거.. [2] 키큰넘() 06.12.16 264 0
16824 한탄 어나더 하드게이지 클리어 영상 있네 ㄱ-;; [3] 믜유() 06.12.16 155 0
16823 현피 하이퍼랑 어나더 어떻게 골라? [2] LIS.() 06.12.16 81 0
16822 [NX 미션 영상] 입수했다 [10] XEED() 06.12.16 330 0
16821 사이버 비트네이션 듣고..... [3] 페카() 06.12.16 70 0
16820 펌프 the prex3 [8] 펌프() 06.12.16 125 0
16819 펌프 NX 미션중 하나가 또 나왔네 [4] XEED() 06.12.16 218 0
16818 파오1어나더 말이다?? [3] 가드의정석() 06.12.16 86 0
16817 어뮤즈월드 홈페이지 의외로 개그다 [5] XEED() 06.12.16 197 0
16816 내일 어디로 원정나가볼까 [2] KITT() 06.12.16 53 0
16815 PS2 기타루맨.. [1] 개념확립() 06.12.16 84 0
16814 네오드럼이랑 드럼매니아랑 많이 다른가버? [3] 가드의정석() 06.12.16 135 0
16813 SPRING RAIN 원곡 갤럭시맛샴() 06.12.16 59 0
16812 근데 머하자는거임?? [5] 디베() 06.12.16 121 0
16811 하나둘셋 송 어디있지 [1] 클모강() 06.12.16 50 0
16810 KITT의 굴욕과 설욕 [4] KITT() 06.12.16 150 0
16809 안뇽 횽들~~ [7] KJD*() 06.12.16 107 0
16808 CS 현피 스카이 발매기념 이벤트 토크!!! [3] 갤럭시맛샴() 06.12.16 128 0
16807 현피나 덜덜이 돌리는 훃들에게 질문 [4] XEED() 06.12.16 149 0
16806 CS 현피스카이 방송한다 갤럭시맛샴() 06.12.16 55 0
16804 싱크검색하니까 말이지 [4] LIS.() 06.12.16 155 0
16803 솔직히 건락나메만큼 병신인 곡도 없다 [3] r() 06.12.16 169 0
16802 Roland v-drum 동영상 [1] ㅋㅋㅋㅋ() 06.12.16 78 0
16801 다이스케를 했는데! [2] LIS.() 06.12.16 93 0
16800 남아공이 왜 이번에 월드컵을 개최하는지 알어? [2] Arialess() 06.12.16 108 0
16799 이중에서 뭐가 제일 병신이냐? [3] () 06.12.16 149 0
16798 청계천에서 MDF 랑 버튼이랑 아크릴판이랑 구매할수있을까? [5] 천시류() 06.12.16 138 0
16797 Keyboardmania 1st CS "Truth" [7] ㅋㅋㅋㅋ() 06.12.16 127 0
16794 노리아와 디제이타카 [1] ㅂㅈㄷㄱ쇼() 06.12.16 121 0
16793 이 동영상 만든사람 누구? --;; [7] Arialess() 06.12.16 233 0
16792 현피 받아서 방금 해보고 글남겨 [1] LIS.() 06.12.16 87 0
16791 오늘 로터리 가따왔는데 [3] TOMO&HERA() 06.12.16 87 0
16789 흠흠. [3] 페카() 06.12.16 66 0
16787 횽들아 back for more좀 올려줘 [3] 꾸웨에에엑() 06.12.16 73 0
16786 nx엠피다올렸어... [2] Forte() 06.12.16 118 0
16785 NX엠피 필요한횽들 있어?? [5] Forte() 06.12.16 412 0
16784 비트콘 버튼 구매할수있는곳 어디없을까? [8] 천시류() 06.12.16 221 0
16783 무한도전에 김태희나온다 [2] Forte() 06.12.16 135 0
16782 밴쿠버 날씨이상으로 캐난리났다 [4] kinetic() 06.12.16 136 0
16780 펌프 어나더 더블이던데? [2] 광마() 06.12.16 135 0
16779 스타할사람 Forte() 06.12.16 45 0
16778 드럼 첫 풀콤 [5] Li() 06.12.16 146 0
16775 TV랑 연결해도 싱크가 안맞으면 이상한가여 [5] Li() 06.12.16 155 0
16774 제대로된 진짜 펌프 안습곡... [4] 필소새드() 06.12.16 188 0
16773 근데 진짜 점수 체계는 [1] XEED() 06.12.16 90 0
갤러리 내부 검색
전체게시물 정렬 옵션

오른쪽 컨텐츠 영역

개념글 []

/

    이슈줌NEW

    1/6

    뉴스NEW

    1/3

    힛(HIT)NEW

    그때 그 힛

    1/3

    초개념

      디시위키

      심심할 땐 랜덤